Moses Lake, WA
on Tuesday, February 19, 2013

Tuesday
Previous Day Next Day
Daily Summary
 ActualAverageRecord
Temperature
Mean Temperature °F 36°F  
Max Temperature 46°F 45°F 66°F (1981)
Min Temperature 28°F 27°F 2°F (1986)
Degree Days
Heating Degree Days 28 29  
Month to date heating degree days 532 586  
Since 1 July heating degree days 3886 4260  
Cooling Degree Days 0 0  
Month to date cooling degree days 0 0  
Year to date cooling degree days 0 0  
Moisture
Dew Point 27°F   
Average Humidity 73    
Maximum Humidity 92    
Minimum Humidity 53    
Precipitation
Precipitation T in 0.02 in 0.40 in (1981)
Month to date precipitation T 0.57  
Year to date precipitation 0.28 1.71  
Wind
Wind Speed 5 mph   
Max Wind Speed 14 mph   
Max Gust Speed 17 mph   
Visibility 10 miles   
Events     

Key: T is trace of precipitation, MM is missing value
Source: NWS Daily Summary
Time(PST)TemperatureDew PointHumidity Pressure Visibility Wind DirectionWind SpeedGust SpeedPrecipitationEvents Conditions
12:52 AM 30.0°F 26.1°F 85% 29.79 in 10.0 miles Calm Calm - N/A   Clear
1:52 AM 28.9°F 26.1°F 89% 29.79 in 10.0 miles Calm Calm - N/A   Clear
2:52 AM 30.0°F 26.1°F 85% 29.78 in 10.0 miles North 5.8 mph - N/A   Overcast
3:52 AM 30.0°F 27.0°F 88% 29.78 in 10.0 miles North 3.5 mph - N/A   Overcast
4:52 AM 30.0°F 27.0°F 88% 29.78 in 10.0 miles NNE 4.6 mph - N/A   Mostly Cloudy
4:55 AM 30.2°F 21.2°F 69% 30.05 in 20.0 miles West 9.2 mph - N/A   Clear
5:52 AM 28.0°F 25.0°F 88% 29.79 in 10.0 miles North 6.9 mph - N/A   Clear
6:52 AM 28.9°F 26.1°F 89% 29.79 in 10.0 miles NNW 6.9 mph - N/A   Scattered Clouds
7:52 AM 28.9°F 25.0°F 85% 29.79 in 10.0 miles North 6.9 mph - N/A   Clear
8:52 AM 30.9°F 28.0°F 89% 29.81 in 10.0 miles Calm Calm - N/A   Scattered Clouds
10:52 AM 41.0°F 30.0°F 65% 29.80 in 10.0 miles North 3.5 mph - N/A   Mostly Cloudy
11:52 AM 41.0°F 28.9°F 62% 29.81 in 10.0 miles Calm Calm - N/A   Scattered Clouds
12:11 PM 41.0°F 28.4°F 61% 29.77 in 10.0 miles WNW 5.8 mph - N/A   Mostly Cloudy
12:52 PM 42.1°F 28.9°F 60% 29.80 in 10.0 miles Calm Calm - N/A   Mostly Cloudy
12:59 PM 42.8°F 28.4°F 57% 29.77 in 10.0 miles Calm Calm - N/A   Overcast
1:52 PM 43.0°F 28.0°F 56% 29.81 in 10.0 miles NW 6.9 mph - N/A   Overcast
2:52 PM 44.1°F 28.9°F 55% 29.81 in 10.0 miles NNW 8.1 mph - N/A   Mostly Cloudy
4:52 PM 39.0°F 28.9°F 67% 29.83 in 10.0 miles NNW 5.8 mph - N/A   Clear
5:52 PM 36.0°F 28.0°F 73% 29.85 in 10.0 miles NNW 4.6 mph - N/A   Overcast
6:52 PM 37.4°F 28.4°F 70% 29.83 in 10.0 miles NNE 3.5 mph - N/A   Overcast
7:52 PM 35.1°F 28.9°F 78% 29.89 in 10.0 miles WNW 4.6 mph - N/A   Overcast
8:52 PM 36.0°F 28.9°F 76% 29.90 in 10.0 miles Calm Calm - N/A   Overcast
9:52 PM 36.0°F 28.9°F 76% 29.91 in 10.0 miles NNW 5.8 mph - 0.00 in   Overcast
10:52 PM 35.1°F 28.9°F 78% 29.92 in 10.0 miles WNW 4.6 mph - 0.00 in   Overcast
11:52 PM 33.1°F 25.0°F 72% 29.94 in 10.0 miles NNW 8.1 mph - N/A   Clear
Moon Phase
Feb. 19 Feb. 25 Mar. 04 Mar. 11 Mar. 19
Sunrise:06:54 AM (PST) Moon Rise:11:51 AM (PST)2/19
Sunset:05:28 PM (PST) Moon Set:02:43 AM (PST)2/19

Copyright © 2014 The Weather Underground, Inc.